| time (UTC) | temp F | wind direction | speed MPH | gust MPH | rain 1hr in | rain 24hr in | rain mn in | humidity % | barometer mb |
| 20260510123557 | 60 | 26 | 12.0 | 21.0 | 0.00 | 0.00 | 0.00 | 72 | 1014.7 |
| 20260510123043 | 60 | 355 | 9.0 | 22.0 | 0.00 | 0.00 | 0.00 | 72 | 1014.7 |
| 20260510122616 | 59 | 328 | 8.0 | 22.0 | 0.00 | 0.00 | 0.00 | 76 | 1014.8 |
| 20260510122038 | 59 | 360 | 12.0 | 23.0 | 0.00 | 0.00 | 0.00 | 73 | 1014.8 |
| 20260510121546 | 59 | 350 | 12.0 | 23.0 | 0.00 | 0.00 | 0.00 | 73 | 1014.9 |
| 20260510121051 | 59 | 54 | 11.0 | 18.0 | 0.00 | 0.00 | 0.00 | 73 | 1014.9 |
| 20260510120538 | 60 | 342 | 9.0 | 24.0 | 0.00 | 0.00 | 0.00 | 73 | 1015.0 |
| 20260510120039 | 59 | 350 | 10.0 | 25.0 | 0.00 | 0.00 | 0.00 | 73 | 1015.0 |
| 20260510115603 | 60 | 11 | 11.0 | 17.0 | 0.00 | 0.00 | 0.00 | 72 | 1015.0 |
| 20260510115049 | 61 | 335 | 6.0 | 15.0 | 0.00 | 0.00 | 0.00 | 71 | 1015.0 |
| 20260510114555 | 60 | 38 | 8.0 | 15.0 | 0.00 | 0.00 | 0.00 | 70 | 1015.0 |
| 20260510114039 | 60 | 16 | 7.0 | 17.0 | 0.00 | 0.00 | 0.00 | 72 | 1015.1 |
| 20260510113543 | 59 | 348 | 10.0 | 18.0 | 0.00 | 0.00 | 0.00 | 72 | 1015.1 |
| 20260510113115 | 60 | 350 | 10.0 | 16.0 | 0.00 | 0.00 | 0.00 | 71 | 1015.2 |
| 20260510112542 | 59 | 355 | 6.0 | 17.0 | 0.00 | 0.00 | 0.00 | 73 | 1015.3 |
| 20260510112049 | 59 | 42 | 8.0 | 17.0 | 0.00 | 0.00 | 0.00 | 72 | 1015.4 |
| 20260510111537 | 59 | 355 | 7.0 | 15.0 | 0.00 | 0.00 | 0.00 | 73 | 1015.4 |
| 20260510111041 | 59 | 343 | 8.0 | 15.0 | 0.00 | 0.00 | 0.00 | 73 | 1015.4 |
| 20260510110549 | 59 | 16 | 5.0 | 15.0 | 0.00 | 0.00 | 0.00 | 73 | 1015.5 |
| 20260510110049 | 58 | 49 | 9.0 | 15.0 | 0.00 | 0.00 | 0.00 | 74 | 1015.6 |
| 20260510105555 | 58 | 355 | 8.0 | 19.0 | 0.00 | 0.00 | 0.00 | 75 | 1015.5 |
| 20260510105042 | 57 | 346 | 11.0 | 19.0 | 0.00 | 0.00 | 0.00 | 74 | 1015.6 |
| 20260510104606 | 58 | 28 | 9.0 | 16.0 | 0.00 | 0.00 | 0.00 | 74 | 1015.7 |
| 20260510104052 | 57 | 9 | 6.0 | 17.0 | 0.00 | 0.00 | 0.00 | 75 | 1015.8 |
| 20260510103540 | 58 | 337 | 7.0 | 17.0 | 0.00 | 0.00 | 0.00 | 73 | 1015.7 |
| 20260510103047 | 58 | 9 | 8.0 | 15.0 | 0.00 | 0.00 | 0.00 | 73 | 1015.8 |
| 20260510102536 | 58 | 16 | 4.0 | 18.0 | 0.00 | 0.00 | 0.00 | 74 | 1015.9 |
| 20260510102045 | 59 | 284 | 5.0 | 18.0 | 0.00 | 0.00 | 0.00 | 73 | 1015.9 |
| 20260510101617 | 58 | 355 | 7.0 | 17.0 | 0.00 | 0.00 | 0.00 | 75 | 1016.0 |
| 20260510101042 | 57 | 18 | 7.0 | 18.0 | 0.00 | 0.00 | 0.00 | 75 | 1016.1 |
| 20260510100549 | 57 | 340 | 11.0 | 18.0 | 0.00 | 0.00 | 0.00 | 73 | 1016.2 |
| 20260510100047 | 58 | 335 | 7.0 | 15.0 | 0.00 | 0.00 | 0.00 | 74 | 1016.2 |
| 20260510095553 | 57 | 320 | 7.0 | 16.0 | 0.00 | 0.00 | 0.00 | 74 | 1016.2 |
| 20260510095040 | 57 | 360 | 10.0 | 20.0 | 0.00 | 0.00 | 0.00 | 74 | 1016.2 |
| 20260510094613 | 57 | 321 | 9.0 | 20.0 | 0.00 | 0.00 | 0.00 | 74 | 1016.2 |
| 20260510094115 | 58 | 338 | 11.0 | 18.0 | 0.00 | 0.00 | 0.00 | 73 | 1016.3 |
| 20260510093543 | 57 | 14 | 8.0 | 18.0 | 0.00 | 0.00 | 0.00 | 75 | 1016.3 |
| 20260510093049 | 58 | 24 | 9.0 | 16.0 | 0.00 | 0.00 | 0.00 | 74 | 1016.3 |
| 20260510092555 | 58 | 345 | 6.0 | 16.0 | 0.00 | 0.00 | 0.00 | 76 | 1016.3 |
| 20260510092058 | 58 | 36 | 10.0 | 16.0 | 0.00 | 0.00 | 0.00 | 75 | 1016.4 |
| 20260510091604 | 58 | 355 | 5.0 | 15.0 | 0.00 | 0.00 | 0.00 | 77 | 1016.4 |
| 20260510091109 | 57 | 360 | 8.0 | 16.0 | 0.00 | 0.00 | 0.00 | 77 | 1016.4 |
| 20260510090555 | 57 | 19 | 9.0 | 17.0 | 0.00 | 0.00 | 0.00 | 78 | 1016.4 |
| 20260510090111 | 56 | 335 | 9.0 | 17.0 | 0.00 | 0.00 | 0.00 | 79 | 1016.3 |
| 20260510085555 | 56 | 340 | 10.0 | 16.0 | 0.00 | 0.00 | 0.00 | 78 | 1016.4 |
| 20260510085041 | 57 | 333 | 9.0 | 15.0 | 0.00 | 0.00 | 0.00 | 76 | 1016.4 |
| 20260510084550 | 57 | 46 | 7.0 | 15.0 | 0.00 | 0.00 | 0.00 | 78 | 1016.5 |
| 20260510084036 | 58 | 346 | 6.0 | 14.0 | 0.00 | 0.00 | 0.00 | 76 | 1016.5 |
| 20260510083540 | 57 | 338 | 5.0 | 14.0 | 0.00 | 0.00 | 0.00 | 77 | 1016.5 |
| 20260510083049 | 57 | 11 | 6.0 | 14.0 | 0.00 | 0.00 | 0.00 | 77 | 1016.5 |
| 20260510082555 | 57 | 19 | 6.0 | 13.0 | 0.00 | 0.00 | 0.00 | 79 | 1016.5 |
| 20260510082041 | 56 | 360 | 6.0 | 13.0 | 0.00 | 0.00 | 0.00 | 78 | 1016.5 |
| 20260510081546 | 56 | 346 | 6.0 | 15.0 | 0.00 | 0.00 | 0.00 | 79 | 1016.5 |
| 20260510081052 | 56 | 360 | 7.0 | 15.0 | 0.00 | 0.00 | 0.00 | 79 | 1016.5 |
| 20260510080542 | 56 | 5 | 7.0 | 15.0 | 0.00 | 0.00 | 0.00 | 79 | 1016.5 |
| 20260510080041 | 56 | 26 | 10.0 | 15.0 | 0.00 | 0.00 | 0.00 | 79 | 1016.6 |
| 20260510075610 | 56 | 346 | 9.0 | 15.0 | 0.00 | 0.00 | 0.00 | 79 | 1016.5 |
| 20260510075110 | 56 | 343 | 8.0 | 16.0 | 0.00 | 0.00 | 0.00 | 81 | 1016.6 |
| 20260510074557 | 56 | 317 | 7.0 | 16.0 | 0.00 | 0.00 | 0.00 | 82 | 1016.6 |
| 20260510074103 | 55 | 16 | 7.0 | 15.0 | 0.00 | 0.00 | 0.00 | 82 | 1016.7 |
| 20260510073547 | 56 | 338 | 7.0 | 15.0 | 0.00 | 0.00 | 0.00 | 80 | 1016.7 |
| 20260510073055 | 57 | 9 | 4.0 | 13.0 | 0.00 | 0.00 | 0.00 | 80 | 1016.7 |
| 20260510072604 | 56 | 28 | 7.0 | 13.0 | 0.00 | 0.00 | 0.00 | 79 | 1016.6 |
| 20260510072050 | 57 | 351 | 6.0 | 15.0 | 0.00 | 0.00 | 0.00 | 79 | 1016.6 |
| 20260510071557 | 57 | 28 | 5.0 | 16.0 | 0.00 | 0.00 | 0.00 | 79 | 1016.5 |
| 20260510071039 | 57 | 107 | 8.0 | 16.0 | 0.00 | 0.00 | 0.00 | 78 | 1016.5 |
| 20260510070549 | 57 | 343 | 7.0 | 13.0 | 0.00 | 0.00 | 0.00 | 77 | 1016.5 |
| 20260510070049 | 56 | 331 | 5.0 | 13.0 | 0.00 | 0.00 | 0.00 | 77 | 1016.5 |
| 20260510065555 | 56 | 40 | 6.0 | 13.0 | 0.00 | 0.00 | 0.00 | 79 | 1016.5 |
| 20260510065054 | 56 | 55 | 7.0 | 18.0 | 0.00 | 0.00 | 0.00 | 79 | 1016.4 |
| 20260510064603 | 56 | 338 | 8.0 | 18.0 | 0.00 | 0.00 | 0.00 | 78 | 1016.2 |
| 20260510064049 | 56 | 5 | 6.0 | 13.0 | 0.00 | 0.00 | 0.00 | 78 | 1016.4 |
| 20260510063537 | 56 | 355 | 5.0 | 12.0 | 0.00 | 0.00 | 0.00 | 77 | 1016.5 |
| 20260510063047 | 56 | 9 | 4.0 | 11.0 | 0.00 | 0.00 | 0.00 | 78 | 1016.5 |
| 20260510062616 | 56 | 29 | 7.0 | 13.0 | 0.00 | 0.00 | 0.00 | 77 | 1016.5 |
| 20260510062039 | 56 | 360 | 3.0 | 16.0 | 0.00 | 0.00 | 0.00 | 77 | 1016.4 |
| 20260510061549 | 56 | 360 | 4.0 | 11.0 | 0.00 | 0.00 | 0.00 | 77 | 1016.5 |
| 20260510061037 | 56 | 355 | 6.0 | 11.0 | 0.00 | 0.00 | 0.00 | 76 | 1016.4 |
| 20260510060603 | 55 | 340 | 2.0 | 10.0 | 0.00 | 0.00 | 0.00 | 76 | 1016.4 |
| 20260510060044 | 55 | 13 | 5.0 | 11.0 | 0.00 | 0.00 | 0.00 | 76 | 1016.4 |
| 20260510055552 | 55 | 9 | 5.0 | 11.0 | 0.00 | 0.00 | 0.00 | 77 | 1016.4 |
| 20260510055041 | 55 | 339 | 3.0 | 13.0 | 0.00 | 0.00 | 0.00 | 78 | 1016.3 |
| 20260510054550 | 55 | 5 | 6.0 | 13.0 | 0.00 | 0.00 | 0.00 | 77 | 1016.3 |
| 20260510054052 | 54 | 281 | 4.0 | 12.0 | 0.00 | 0.00 | 0.00 | 76 | 1016.4 |
| 20260510053541 | 54 | 339 | 6.0 | 12.0 | 0.00 | 0.00 | 0.00 | 77 | 1016.4 |
| 20260510053112 | 54 | 46 | 4.0 | 12.0 | 0.00 | 0.00 | 0.00 | 78 | 1016.4 |
| 20260510052539 | 54 | 33 | 5.0 | 11.0 | 0.00 | 0.00 | 0.00 | 78 | 1016.4 |
| 20260510052044 | 53 | 5 | 4.0 | 11.0 | 0.00 | 0.00 | 0.00 | 79 | 1016.5 |
| 20260510051555 | 53 | 51 | 4.0 | 10.0 | 0.00 | 0.00 | 0.00 | 80 | 1016.5 |
| 20260510051045 | 53 | 355 | 4.0 | 11.0 | 0.00 | 0.00 | 0.00 | 80 | 1016.5 |
| 20260510050553 | 53 | 355 | 3.0 | 9.0 | 0.00 | 0.00 | 0.00 | 81 | 1016.5 |
| 20260510050054 | 53 | 43 | 4.0 | 9.0 | 0.00 | 0.00 | 0.00 | 81 | 1016.6 |
| 20260510045536 | 53 | 348 | 4.0 | 9.0 | 0.00 | 0.00 | 0.00 | 81 | 1016.6 |
| 20260510045044 | 52 | 28 | 2.0 | 8.0 | 0.00 | 0.00 | 0.00 | 82 | 1016.6 |
| 20260510044554 | 52 | 15 | 4.0 | 9.0 | 0.00 | 0.00 | 0.00 | 82 | 1016.6 |
| 20260510044042 | 52 | 323 | 3.0 | 9.0 | 0.00 | 0.00 | 0.00 | 83 | 1016.4 |
| 20260510043551 | 52 | 5 | 1.0 | 9.0 | 0.00 | 0.00 | 0.00 | 83 | 1016.4 |
| 20260510043052 | 52 | 54 | 3.0 | 11.0 | 0.00 | 0.00 | 0.00 | 83 | 1016.3 |
| 20260510042601 | 52 | 5 | 3.0 | 11.0 | 0.00 | 0.00 | 0.00 | 84 | 1016.3 |
| 20260510042113 | 52 | 360 | 4.0 | 9.0 | 0.00 | 0.00 | 0.00 | 84 | 1016.3 |
| 20260510041539 | 52 | 340 | 3.0 | 9.0 | 0.00 | 0.00 | 0.00 | 84 | 1016.2 |
| 20260510041042 | 52 | 347 | 3.0 | 9.0 | 0.00 | 0.00 | 0.00 | 84 | 1016.2 |
| 20260510040609 | 52 | 9 | 3.0 | 9.0 | 0.00 | 0.00 | 0.00 | 83 | 1016.3 |
| 20260510040048 | 52 | 40 | 3.0 | 9.0 | 0.00 | 0.00 | 0.00 | 83 | 1016.3 |
| 20260510035536 | 52 | 5 | 3.0 | 11.0 | 0.00 | 0.00 | 0.00 | 83 | 1016.3 |
| 20260510035044 | 52 | 360 | 4.0 | 11.0 | 0.00 | 0.00 | 0.00 | 84 | 1016.3 |
| 20260510034547 | 52 | 5 | 4.0 | 11.0 | 0.00 | 0.00 | 0.00 | 85 | 1016.4 |
| 20260510034052 | 52 | 22 | 3.0 | 11.0 | 0.00 | 0.00 | 0.00 | 85 | 1016.4 |
| 20260510033540 | 52 | 360 | 3.0 | 9.0 | 0.00 | 0.00 | 0.00 | 85 | 1016.5 |
| 20260510033046 | 52 | 348 | 4.0 | 9.0 | 0.00 | 0.00 | 0.00 | 85 | 1016.5 |
| 20260510032548 | 52 | 9 | 3.0 | 9.0 | 0.00 | 0.00 | 0.00 | 85 | 1016.5 |
| 20260510032037 | 52 | 360 | 3.0 | 9.0 | 0.00 | 0.00 | 0.00 | 85 | 1016.5 |
| 20260510031603 | 52 | 355 | 3.0 | 9.0 | 0.00 | 0.00 | 0.00 | 85 | 1016.5 |
| 20260510031050 | 52 | 5 | 3.0 | 9.0 | 0.00 | 0.00 | 0.00 | 85 | 1016.6 |
| 20260510030536 | 52 | 360 | 4.0 | 9.0 | 0.00 | 0.00 | 0.00 | 86 | 1016.6 |
| 20260510030035 | 52 | 360 | 3.0 | 9.0 | 0.00 | 0.00 | 0.00 | 87 | 1016.6 |
| 20260510025544 | 52 | 348 | 2.0 | 9.0 | 0.00 | 0.00 | 0.00 | 88 | 1016.7 |
| 20260510025051 | 52 | 346 | 2.0 | 8.0 | 0.00 | 0.00 | 0.00 | 88 | 1016.7 |
| 20260510024545 | 52 | 339 | 2.0 | 8.0 | 0.00 | 0.00 | 0.00 | 89 | 1016.7 |
| 20260510024042 | 52 | 336 | 3.0 | 8.0 | 0.00 | 0.00 | 0.00 | 89 | 1016.8 |
| 20260510023614 | 52 | 16 | 2.0 | 8.0 | 0.00 | 0.00 | 0.00 | 89 | 1016.7 |
| 20260510023040 | 52 | 355 | 3.0 | 8.0 | 0.00 | 0.00 | 0.00 | 89 | 1016.7 |
| 20260510022549 | 52 | 23 | 3.0 | 10.0 | 0.00 | 0.00 | 0.00 | 89 | 1016.7 |
| 20260510022052 | 52 | 19 | 4.0 | 10.0 | 0.00 | 0.00 | 0.00 | 89 | 1016.7 |
| 20260510021540 | 52 | 31 | 4.0 | 7.0 | 0.00 | 0.00 | 0.00 | 89 | 1016.8 |
| 20260510021046 | 52 | 355 | 3.0 | 10.0 | 0.00 | 0.00 | 0.00 | 89 | 1016.8 |
| 20260510020551 | 52 | 360 | 2.0 | 10.0 | 0.00 | 0.00 | 0.00 | 90 | 1016.8 |
| 20260510020052 | 52 | 15 | 2.0 | 5.0 | 0.00 | 0.00 | 0.00 | 90 | 1016.8 |
| 20260510015553 | 52 | 345 | 3.0 | 6.0 | 0.00 | 0.00 | 0.00 | 90 | 1016.7 |
| 20260510015039 | 53 | 325 | 3.0 | 8.0 | 0.00 | 0.00 | 0.00 | 90 | 1016.7 |
| 20260510014546 | 53 | 5 | 2.0 | 8.0 | 0.00 | 0.00 | 0.00 | 90 | 1016.7 |
| 20260510014054 | 53 | 355 | 3.0 | 8.0 | 0.00 | 0.00 | 0.00 | 90 | 1016.7 |
| 20260510013542 | 52 | 342 | 3.0 | 6.0 | 0.00 | 0.00 | 0.00 | 90 | 1016.9 |
| 20260510013107 | 53 | 355 | 2.0 | 9.0 | 0.00 | 0.00 | 0.00 | 90 | 1016.8 |
| 20260510012553 | 53 | 9 | 2.0 | 9.0 | 0.00 | 0.00 | 0.00 | 89 | 1016.8 |
| 20260510012058 | 53 | 15 | 4.0 | 9.0 | 0.00 | 0.00 | 0.00 | 89 | 1016.7 |
| 20260510011547 | 53 | 355 | 2.0 | 9.0 | 0.00 | 0.00 | 0.00 | 88 | 1016.6 |
| 20260510011108 | 53 | 327 | 3.0 | 6.0 | 0.00 | 0.00 | 0.00 | 88 | 1016.7 |
| 20260510010537 | 53 | 9 | 2.0 | 6.0 | 0.00 | 0.00 | 0.00 | 88 | 1016.8 |
| 20260510010036 | 53 | 347 | 3.0 | 6.0 | 0.00 | 0.00 | 0.00 | 88 | 1016.9 |
| 20260510005545 | 53 | 30 | 3.0 | 6.0 | 0.00 | 0.00 | 0.00 | 88 | 1017.0 |
| 20260510005108 | 53 | 336 | 3.0 | 6.0 | 0.00 | 0.00 | 0.00 | 88 | 1017.0 |
| 20260510004535 | 52 | 343 | 2.0 | 5.0 | 0.00 | 0.00 | 0.00 | 87 | 1017.1 |
| 20260510004043 | 52 | 355 | 2.0 | 5.0 | 0.00 | 0.00 | 0.00 | 87 | 1017.1 |
| 20260510003611 | 53 | 11 | 1.0 | 3.0 | 0.00 | 0.00 | 0.00 | 87 | 1017.1 |
| 20260510003054 | 52 | 40 | 1.0 | 4.0 | 0.00 | 0.00 | 0.00 | 88 | 1017.1 |
| 20260510002544 | 52 | 12 | 2.0 | 4.0 | 0.00 | 0.00 | 0.00 | 87 | 1017.1 |
| 20260510002116 | 52 | 12 | 1.0 | 4.0 | 0.00 | 0.00 | 0.00 | 87 | 1017.2 |
| 20260510001604 | 52 | 12 | 1.0 | 3.0 | 0.00 | 0.00 | 0.00 | 87 | 1017.2 |
| 20260510001107 | 53 | 12 | 1.0 | 4.0 | 0.00 | 0.00 | 0.00 | 85 | 1017.2 |
| 20260510000555 | 53 | 12 | 1.0 | 4.0 | 0.00 | 0.00 | 0.00 | 85 | 1017.2 |
| 20260510000035 | 53 | 9 | 2.0 | 3.0 | 0.00 | 0.00 | 0.00 | 83 | 1017.3 |
| 20260509235545 | 53 | 355 | 2.0 | 3.0 | 0.00 | 0.00 | 0.00 | 82 | 1017.3 |
| 20260509235048 | 53 | 355 | 1.0 | 3.0 | 0.00 | 0.00 | 0.00 | 82 | 1017.3 |
| 20260509234557 | 53 | 10 | 1.0 | 3.0 | 0.00 | 0.00 | 0.00 | 82 | 1017.2 |
| 20260509234045 | 53 | 10 | 1.0 | 4.0 | 0.00 | 0.00 | 0.00 | 81 | 1017.4 |
| 20260509233554 | 53 | 347 | 1.0 | 5.0 | 0.00 | 0.00 | 0.00 | 81 | 1017.3 |
| 20260509233042 | 53 | 13 | 2.0 | 5.0 | 0.00 | 0.00 | 0.00 | 81 | 1017.4 |
| 20260509232547 | 53 | 342 | 2.0 | 4.0 | 0.00 | 0.00 | 0.00 | 81 | 1017.3 |
| 20260509232038 | 53 | 349 | 1.0 | 4.0 | 0.00 | 0.00 | 0.00 | 81 | 1017.2 |
| 20260509231547 | 53 | 346 | 3.0 | 4.0 | 0.00 | 0.00 | 0.00 | 81 | 1017.3 |
| 20260509231036 | 53 | 347 | 1.0 | 6.0 | 0.00 | 0.00 | 0.00 | 81 | 1017.3 |
| 20260509230605 | 53 | 347 | 1.0 | 6.0 | 0.00 | 0.00 | 0.00 | 80 | 1017.3 |
| 20260509230040 | 54 | 5 | 2.0 | 4.0 | 0.00 | 0.00 | 0.00 | 80 | 1017.3 |
| 20260509225548 | 54 | 351 | 2.0 | 8.0 | 0.00 | 0.00 | 0.00 | 80 | 1017.3 |
| 20260509225035 | 54 | 360 | 3.0 | 8.0 | 0.00 | 0.00 | 0.00 | 79 | 1017.3 |
| 20260509224543 | 54 | 342 | 3.0 | 6.0 | 0.00 | 0.00 | 0.00 | 79 | 1017.3 |
| 20260509224047 | 54 | 80 | 1.0 | 4.0 | 0.00 | 0.00 | 0.00 | 79 | 1017.4 |
| 20260509223536 | 54 | 5 | 2.0 | 3.0 | 0.00 | 0.00 | 0.00 | 79 | 1017.4 |
| 20260509223046 | 54 | 344 | 1.0 | 5.0 | 0.00 | 0.00 | 0.00 | 78 | 1017.4 |
| 20260509222536 | 54 | 5 | 2.0 | 5.0 | 0.00 | 0.00 | 0.00 | 78 | 1017.4 |
| 20260509222044 | 55 | 355 | 2.0 | 5.0 | 0.00 | 0.00 | 0.00 | 78 | 1017.4 |
| 20260509221548 | 55 | 347 | 1.0 | 8.0 | 0.00 | 0.00 | 0.00 | 77 | 1017.4 |
| 20260509221036 | 55 | 9 | 2.0 | 8.0 | 0.00 | 0.00 | 0.00 | 77 | 1017.4 |
| 20260509220546 | 55 | 344 | 3.0 | 6.0 | 0.00 | 0.00 | 0.00 | 77 | 1017.4 |
| 20260509220046 | 55 | 360 | 2.0 | 6.0 | 0.00 | 0.00 | 0.00 | 77 | 1017.4 |
| 20260509215552 | 55 | 5 | 3.0 | 6.0 | 0.00 | 0.00 | 0.00 | 78 | 1017.3 |
| 20260509215034 | 55 | 32 | 2.0 | 6.0 | 0.00 | 0.00 | 0.00 | 78 | 1017.3 |
| 20260509214544 | 55 | 22 | 3.0 | 8.0 | 0.00 | 0.00 | 0.00 | 78 | 1017.3 |
| 20260509214052 | 55 | 38 | 3.0 | 8.0 | 0.00 | 0.00 | 0.00 | 79 | 1017.3 |
| 20260509213540 | 55 | 346 | 3.0 | 8.0 | 0.00 | 0.00 | 0.00 | 80 | 1017.2 |
| 20260509213113 | 55 | 79 | 1.0 | 6.0 | 0.00 | 0.00 | 0.00 | 80 | 1017.2 |
| 20260509212537 | 55 | 32 | 2.0 | 5.0 | 0.00 | 0.00 | 0.00 | 81 | 1017.3 |
| 20260509212046 | 55 | 32 | 3.0 | 5.0 | 0.00 | 0.00 | 0.00 | 81 | 1017.4 |
| 20260509211553 | 55 | 32 | 3.0 | 6.0 | 0.00 | 0.00 | 0.00 | 81 | 1017.4 |
| 20260509211041 | 56 | 31 | 2.0 | 5.0 | 0.00 | 0.00 | 0.00 | 82 | 1017.4 |
| 20260509210550 | 55 | 336 | 2.0 | 11.0 | 0.00 | 0.00 | 0.00 | 82 | 1017.4 |
| 20260509210112 | 56 | 350 | 4.0 | 11.0 | 0.00 | 0.00 | 0.00 | 83 | 1017.4 |
| 20260509205538 | 56 | 360 | 2.0 | 8.0 | 0.00 | 0.00 | 0.00 | 83 | 1017.4 |
| 20260509205107 | 56 | 360 | 3.0 | 8.0 | 0.00 | 0.00 | 0.00 | 83 | 1017.4 |
| 20260509204535 | 56 | 355 | 3.0 | 8.0 | 0.00 | 0.00 | 0.00 | 83 | 1017.3 |
| 20260509204038 | 56 | 355 | 4.0 | 8.0 | 0.00 | 0.00 | 0.00 | 83 | 1017.3 |
| 20260509203548 | 56 | 355 | 3.0 | 8.0 | 0.00 | 0.00 | 0.00 | 83 | 1017.2 |
| 20260509203035 | 56 | 319 | 4.0 | 6.0 | 0.00 | 0.00 | 0.00 | 83 | 1017.2 |
| 20260509202544 | 56 | 360 | 2.0 | 8.0 | 0.00 | 0.00 | 0.00 | 83 | 1017.2 |
| 20260509202053 | 56 | 360 | 3.0 | 8.0 | 0.00 | 0.00 | 0.00 | 82 | 1017.2 |
| 20260509201556 | 56 | 336 | 3.0 | 7.0 | 0.00 | 0.00 | 0.00 | 82 | 1017.1 |
| 20260509201044 | 56 | 333 | 4.0 | 6.0 | 0.00 | 0.00 | 0.00 | 82 | 1017.2 |
| 20260509200553 | 56 | 350 | 3.0 | 6.0 | 0.00 | 0.00 | 0.00 | 81 | 1017.3 |
| 20260509200034 | 56 | 344 | 3.0 | 10.0 | 0.00 | 0.00 | 0.00 | 81 | 1017.4 |
| 20260509195540 | 56 | 17 | 5.0 | 8.0 | 0.00 | 0.00 | 0.00 | 80 | 1017.4 |
| 20260509195049 | 56 | 5 | 3.0 | 8.0 | 0.00 | 0.00 | 0.00 | 79 | 1017.4 |
| 20260509194537 | 56 | 9 | 2.0 | 6.0 | 0.00 | 0.00 | 0.00 | 79 | 1017.4 |
| 20260509194044 | 56 | 22 | 2.0 | 8.0 | 0.00 | 0.00 | 0.00 | 78 | 1017.3 |
| 20260509193534 | 57 | 360 | 3.0 | 8.0 | 0.00 | 0.00 | 0.00 | 78 | 1017.3 |
| 20260509193038 | 57 | 25 | 3.0 | 10.0 | 0.00 | 0.00 | 0.00 | 77 | 1017.3 |
| 20260509192607 | 57 | 360 | 5.0 | 10.0 | 0.00 | 0.00 | 0.00 | 77 | 1017.2 |
| 20260509192054 | 57 | 360 | 4.0 | 8.0 | 0.00 | 0.00 | 0.00 | 76 | 1017.2 |
| 20260509191542 | 57 | 31 | 3.0 | 9.0 | 0.00 | 0.00 | 0.00 | 76 | 1017.2 |
| 20260509191051 | 57 | 350 | 5.0 | 9.0 | 0.00 | 0.00 | 0.00 | 75 | 1017.1 |
| 20260509190549 | 57 | 20 | 4.0 | 8.0 | 0.00 | 0.00 | 0.00 | 75 | 1017.0 |
| 20260509190048 | 58 | 329 | 5.0 | 10.0 | 0.00 | 0.00 | 0.00 | 74 | 1017.0 |
| 20260509185537 | 58 | 349 | 5.0 | 10.0 | 0.00 | 0.00 | 0.00 | 74 | 1017.0 |
| 20260509185045 | 58 | 5 | 4.0 | 8.0 | 0.00 | 0.00 | 0.00 | 74 | 1017.0 |
| 20260509184610 | 58 | 346 | 4.0 | 11.0 | 0.00 | 0.00 | 0.00 | 74 | 1017.0 |
| 20260509184035 | 58 | 333 | 5.0 | 11.0 | 0.00 | 0.00 | 0.00 | 74 | 1017.0 |
| 20260509183605 | 58 | 5 | 3.0 | 13.0 | 0.00 | 0.00 | 0.00 | 74 | 1016.9 |
| 20260509183051 | 58 | 36 | 7.0 | 13.0 | 0.00 | 0.00 | 0.00 | 73 | 1016.9 |
| 20260509182540 | 59 | 5 | 4.0 | 10.0 | 0.00 | 0.00 | 0.00 | 72 | 1016.9 |
| 20260509182102 | 59 | 345 | 3.0 | 11.0 | 0.00 | 0.00 | 0.00 | 72 | 1016.9 |
| 20260509181548 | 59 | 360 | 7.0 | 11.0 | 0.00 | 0.00 | 0.00 | 71 | 1016.9 |
| 20260509181037 | 59 | 23 | 7.0 | 11.0 | 0.00 | 0.00 | 0.00 | 70 | 1016.8 |
| 20260509180543 | 60 | 5 | 5.0 | 11.0 | 0.00 | 0.00 | 0.00 | 69 | 1016.8 |
| 20260509180039 | 60 | 5 | 6.0 | 10.0 | 0.00 | 0.00 | 0.00 | 69 | 1016.7 |
| 20260509175547 | 61 | 10 | 4.0 | 10.0 | 0.00 | 0.00 | 0.00 | 68 | 1016.7 |
| 20260509175034 | 61 | 360 | 4.0 | 14.0 | 0.00 | 0.00 | 0.00 | 67 | 1016.7 |
| 20260509174539 | 61 | 341 | 6.0 | 14.0 | 0.00 | 0.00 | 0.00 | 65 | 1016.8 |
| 20260509174102 | 61 | 9 | 5.0 | 12.0 | 0.00 | 0.00 | 0.00 | 64 | 1016.8 |
| 20260509173612 | 61 | 355 | 5.0 | 11.0 | 0.00 | 0.00 | 0.00 | 63 | 1016.9 |
| 20260509173057 | 62 | 346 | 4.0 | 15.0 | 0.00 | 0.00 | 0.00 | 62 | 1016.9 |
| 20260509172543 | 62 | 12 | 6.0 | 15.0 | 0.00 | 0.00 | 0.00 | 62 | 1016.9 |
| 20260509172112 | 62 | 344 | 6.0 | 14.0 | 0.00 | 0.00 | 0.00 | 60 | 1016.9 |
| 20260509171540 | 63 | 13 | 7.0 | 13.0 | 0.00 | 0.00 | 0.00 | 58 | 1017.0 |
| 20260509171046 | 63 | 351 | 6.0 | 13.0 | 0.00 | 0.00 | 0.00 | 57 | 1017.0 |
| 20260509170553 | 64 | 18 | 5.0 | 10.0 | 0.00 | 0.00 | 0.00 | 58 | 1016.9 |
| 20260509170053 | 64 | 355 | 4.0 | 10.0 | 0.00 | 0.00 | 0.00 | 57 | 1017.0 |
| 20260509165537 | 64 | 355 | 4.0 | 10.0 | 0.00 | 0.00 | 0.00 | 57 | 1017.0 |
| 20260509165045 | 65 | 333 | 3.0 | 9.0 | 0.00 | 0.00 | 0.00 | 55 | 1017.0 |
| 20260509164553 | 64 | 346 | 5.0 | 13.0 | 0.00 | 0.00 | 0.00 | 55 | 1017.0 |
| 20260509164034 | 64 | 348 | 8.0 | 13.0 | 0.00 | 0.00 | 0.00 | 53 | 1016.9 |
| 20260509163542 | 64 | 61 | 4.0 | 11.0 | 0.00 | 0.00 | 0.00 | 55 | 1016.9 |
| 20260509163109 | 66 | 336 | 6.0 | 11.0 | 0.00 | 0.00 | 0.00 | 52 | 1017.0 |
| 20260509162555 | 65 | 331 | 4.0 | 11.0 | 0.00 | 0.00 | 0.00 | 52 | 1016.9 |
| 20260509162104 | 65 | 349 | 5.0 | 14.0 | 0.00 | 0.00 | 0.00 | 52 | 1016.8 |
| 20260509161548 | 64 | 331 | 5.0 | 14.0 | 0.00 | 0.00 | 0.00 | 53 | 1016.9 |
| 20260509161033 | 64 | 336 | 5.0 | 13.0 | 0.00 | 0.00 | 0.00 | 53 | 1016.8 |
| 20260509160543 | 64 | 11 | 8.0 | 14.0 | 0.00 | 0.00 | 0.00 | 53 | 1016.8 |
| 20260509160041 | 64 | 5 | 7.0 | 16.0 | 0.00 | 0.00 | 0.00 | 53 | 1016.8 |
| 20260509155551 | 64 | 337 | 8.0 | 16.0 | 0.00 | 0.00 | 0.00 | 51 | 1016.9 |
| 20260509155033 | 65 | 37 | 8.0 | 13.0 | 0.00 | 0.00 | 0.00 | 50 | 1016.9 |
| 20260509154542 | 65 | 330 | 7.0 | 12.0 | 0.00 | 0.00 | 0.00 | 52 | 1016.9 |
| 20260509154108 | 65 | 308 | 6.0 | 12.0 | 0.00 | 0.00 | 0.00 | 49 | 1016.8 |
| 20260509153551 | 65 | 360 | 5.0 | 14.0 | 0.00 | 0.00 | 0.00 | 50 | 1016.8 |
| 20260509153036 | 65 | 315 | 5.0 | 15.0 | 0.00 | 0.00 | 0.00 | 51 | 1016.8 |
| 20260509152537 | 65 | 25 | 7.0 | 19.0 | 0.00 | 0.00 | 0.00 | 52 | 1016.8 |
| 20260509152045 | 64 | 321 | 8.0 | 19.0 | 0.00 | 0.00 | 0.00 | 51 | 1016.8 |
| 20260509151552 | 65 | 307 | 6.0 | 11.0 | 0.00 | 0.00 | 0.00 | 51 | 1016.7 |
| 20260509151038 | 65 | 347 | 5.0 | 15.0 | 0.00 | 0.00 | 0.00 | 51 | 1016.9 |
| 20260509150543 | 66 | 5 | 8.0 | 14.0 | 0.00 | 0.00 | 0.00 | 51 | 1016.9 |
| 20260509150045 | 66 | 17 | 6.0 | 14.0 | 0.00 | 0.00 | 0.00 | 52 | 1016.9 |
| 20260509145552 | 65 | 348 | 6.0 | 13.0 | 0.00 | 0.00 | 0.00 | 53 | 1016.9 |
| 20260509145059 | 65 | 51 | 6.0 | 15.0 | 0.00 | 0.00 | 0.00 | 54 | 1016.9 |
| 20260509144541 | 66 | 11 | 8.0 | 15.0 | 0.00 | 0.00 | 0.00 | 54 | 1017.0 |
| 20260509144046 | 67 | 17 | 6.0 | 13.0 | 0.00 | 0.00 | 0.00 | 53 | 1017.0 |
| 20260509143534 | 66 | 33 | 5.0 | 13.0 | 0.00 | 0.00 | 0.00 | 54 | 1017.0 |
| 20260509143040 | 66 | 5 | 9.0 | 14.0 | 0.00 | 0.00 | 0.00 | 51 | 1017.1 |
| 20260509142609 | 67 | 9 | 7.0 | 14.0 | 0.00 | 0.00 | 0.00 | 49 | 1017.0 |
| 20260509142050 | 68 | 355 | 7.0 | 12.0 | 0.00 | 0.00 | 0.00 | 49 | 1017.0 |
| 20260509141539 | 68 | 34 | 6.0 | 12.0 | 0.00 | 0.00 | 0.00 | 49 | 1017.1 |
| 20260509141045 | 66 | 355 | 6.0 | 13.0 | 0.00 | 0.00 | 0.00 | 52 | 1017.1 |
| 20260509140534 | 67 | 26 | 9.0 | 13.0 | 0.00 | 0.00 | 0.00 | 50 | 1017.1 |
| 20260509140033 | 65 | 9 | 8.0 | 13.0 | 0.00 | 0.00 | 0.00 | 52 | 1017.3 |
| 20260509135539 | 66 | 335 | 9.0 | 14.0 | 0.00 | 0.00 | 0.00 | 51 | 1017.3 |
| 20260509135047 | 67 | 5 | 5.0 | 14.0 | 0.00 | 0.00 | 0.00 | 50 | 1017.4 |
| 20260509134536 | 67 | 347 | 6.0 | 12.0 | 0.00 | 0.00 | 0.00 | 51 | 1017.5 |
| 20260509134044 | 66 | 341 | 6.0 | 13.0 | 0.00 | 0.00 | 0.00 | 51 | 1017.4 |
| 20260509133551 | 65 | 351 | 7.0 | 13.0 | 0.00 | 0.00 | 0.00 | 53 | 1017.4 |
| 20260509133038 | 66 | 17 | 7.0 | 13.0 | 0.00 | 0.00 | 0.00 | 52 | 1017.5 |
| 20260509132546 | 67 | 355 | 6.0 | 12.0 | 0.00 | 0.00 | 0.00 | 50 | 1017.6 |
| 20260509132033 | 68 | 336 | 4.0 | 12.0 | 0.00 | 0.00 | 0.00 | 52 | 1017.7 |
| 20260509131542 | 68 | 20 | 6.0 | 11.0 | 0.00 | 0.00 | 0.00 | 51 | 1017.6 |
| 20260509131049 | 68 | 337 | 4.0 | 10.0 | 0.00 | 0.00 | 0.00 | 52 | 1017.7 |
| 20260509130534 | 67 | 38 | 5.0 | 12.0 | 0.00 | 0.00 | 0.00 | 54 | 1017.9 |
| 20260509130036 | 66 | 5 | 5.0 | 12.0 | 0.00 | 0.00 | 0.00 | 55 | 1017.9 |
| 20260509125543 | 66 | 339 | 7.0 | 13.0 | 0.00 | 0.00 | 0.00 | 54 | 1017.8 |
| 20260509125052 | 66 | 360 | 7.0 | 13.0 | 0.00 | 0.00 | 0.00 | 54 | 1018.0 |
| 20260509124541 | 67 | 9 | 6.0 | 11.0 | 0.00 | 0.00 | 0.00 | 51 | 1017.9 |
| 20260509124046 | 68 | 337 | 6.0 | 13.0 | 0.00 | 0.00 | 0.00 | 53 | 1018.0 |